Location: Unspecified
(0.0000°N, 0.0000°E)
Time: 19:35:22
(UTC+00:00)

Vanguard 1 Rocket - Visible Passes

Search period start: 26 April 2017 00:00
Search period end: 06 May 2017 00:00
Orbit: 650 x 4227 km, 34.3° (Epoch: 25 April)

Date Brightness Start Highest point End Pass type
(mag) Time Alt. Az. Time Alt. Az. Time Alt. Az.
26 Apr 11.1 19:22:45 10° SW 19:40:49 22° S 19:50:43 17° SE visible
26 Apr 11.2 21:59:33 10° SW 22:08:00 23° SSW 22:08:00 23° SSW visible
27 Apr 11.4 18:04:30 10° SW 18:22:00 22° S 18:39:20 10° SE visible
27 Apr 10.9 20:43:29 10° SW 21:00:46 28° S 21:00:46 28° S visible
27 Apr 11.6 23:17:25 10° SW 23:18:03 11° SW 23:18:03 11° SW visible
28 Apr 11.0 19:26:47 10° SW 19:45:55 24° S 19:53:35 20° SE visible
28 Apr 11.1 22:01:49 10° SW 22:10:52 25° SSW 22:10:52 25° SSW visible
29 Apr 11.3 18:09:35 10° SW 18:27:20 22° S 18:44:24 10° SE visible
29 Apr 10.8 20:46:06 10° SW 21:03:45 33° S 21:03:45 33° S visible
29 Apr 11.6 23:19:54 10° SW 23:21:02 12° SW 23:21:02 12° SW visible
30 Apr 10.9 19:30:11 10° SW 19:50:44 28° SSE 19:56:41 25° SE visible
30 Apr 11.0 22:04:07 10° SW 22:13:59 29° SSW 22:13:59 29° SSW visible
01 May 11.2 18:14:02 10° SW 18:32:35 23° S 18:49:41 10° SE visible
01 May 10.7 20:48:33 10° SW 21:07:00 39° S 21:07:00 39° S visible
01 May 11.6 23:22:35 10° SW 23:24:18 13° SW 23:24:18 13° SW visible
02 May 10.7 19:33:08 10° SW 19:55:13 32° SSE 20:00:05 30° SE visible
02 May 11.0 22:06:30 10° SW 22:17:24 32° SW 22:17:24 32° SW visible
03 May 11.1 18:17:49 10° SW 18:37:34 26° SSE 18:53:17 13° ESE visible
03 May 10.5 20:50:55 10° SW 21:10:37 46° S 21:10:37 46° S visible
03 May 11.5 23:25:33 10° WSW 23:27:56 14° WSW 23:27:56 14° WSW visible
04 May 10.5 19:35:49 10° SW 19:59:20 39° SSE 20:03:55 36° SE visible
04 May 10.8 22:09:01 10° SW 22:21:16 36° SW 22:21:16 36° SW visible
05 May 10.9 18:21:06 10° SSW 18:42:12 30° SSE 18:57:21 16° ESE visible
05 May 10.3 20:53:19 10° SW 21:14:43 57° S 21:14:43 57° S visible
